Home   Weather   Sandnessjøen   Past weeks

Flag for Norway Past Weather in Sandnessjøen, Norway — Yesterday and Last 2 Weeks

Now
28 °F

Light mixture of precip. Passing clouds.


Feels Like: 28 °F
Forecast: 37 / 41 °F
Wind: 2 mph from Northeast

Location: Sandnessjoen / Stokka

Current Time: Dec 2, 2016 at 9:11:34 pm

Latest Report: Dec 2, 2016 at 8:20 pm


Visibility: N/A

Pressure: 29.98 "Hg

Humidity: 100%

Dew Point: 28 °F

Location of SandnessjøenLocation

Past Weather in Sandnessjøen — Graph

°F

Sandnessjøen Temperature Yesterday

Maximum temperature yesterday: 43 °F (at 6:20 pm)
Minimum temperature yesterday: 37 °F (at 4:50 am)
Average temperature yesterday: 40 °F

High & Low Weather Summary for the Past Weeks

 TemperatureHumidityPressure
High46 °F (Nov 25, 4:20 pm)100% (Nov 17, 7:20 pm)30.30 "Hg (Nov 17, 7:20 pm)
Low28 °F (Dec 2, 6:50 pm)45% (Nov 18, 12:50 pm)29.00 "Hg (Nov 19, 1:50 am)
Average38 °F81%29.63 "Hg
* Reported Nov 17 7:20 pm — Dec 2 7:50 pm, Sandnessjøen, Weather by CustomWeather, © 2016

Note: Actual official high and low records may vary slightly from our data, if they occured in-between our weather recording intervals... More about our weather records

Advertising

Sandnessjøen Weather History for the Previous 24 Hours

Scroll right to see more
 ConditionsComfort  
Time TempWeatherWind HumidityBarometerVisibility
7:50 pm
Fri, Dec 2
28 °FLight mixture of precip. Passing clouds.1 mph100%29.98 "HgN/A
7:20 pm28 °FLight mixture of precip. Passing clouds.1 mph100%29.98 "HgN/A
6:50 pm28 °FLight mixture of precip. Passing clouds.2 mph100%29.98 "HgN/A
6:20 pm30 °FSnow flurries. Partly cloudy.2 mph93%29.98 "HgN/A
5:50 pm30 °FSnow flurries. Partly cloudy.2 mph100%29.98 "HgN/A
5:20 pm32 °FSnow flurries. Partly cloudy.2 mph93%29.98 "HgN/A
4:50 pm32 °FSnow flurries. Partly cloudy.1 mph93%29.98 "HgN/A
4:20 pm32 °FSnow flurries. Dense fog.1 mph100%29.98 "Hg2 mi
3:50 pm32 °FSnow flurries. Partly cloudy.1 mph100%29.98 "Hg4 mi
3:20 pm32 °FSnow showers. Dense fog.3 mph100%29.98 "Hg1 mi
2:50 pm32 °FSnow. Dense fog.7 mph93%29.98 "Hg1 mi
2:20 pm32 °FSnow showers. Dense fog.8 mph93%29.98 "Hg1 mi
1:50 pm34 °FSnow flurries. Dense fog.9 mph87%29.95 "Hg2 mi
1:20 pm34 °FSnow flurries. Broken clouds.10 mph87%29.95 "HgN/A
12:20 pm36 °FScattered showers. Partly sunny.6 mph70%29.95 "HgN/A
11:50 am36 °FScattered showers. Scattered clouds.8 mph75%29.95 "HgN/A
11:20 am36 °FScattered clouds.8 mph75%29.95 "HgN/A
10:50 am39 °FScattered showers. Scattered clouds.8 mph70%29.95 "HgN/A
10:20 am39 °FScattered showers. Partly sunny.7 mph52%29.95 "HgN/A
9:50 am39 °FScattered showers. Passing clouds.6 mph56%29.95 "HgN/A
9:20 am37 °FScattered showers. Passing clouds.8 mph65%29.95 "HgN/A
8:50 am36 °FPassing clouds.5 mph70%29.95 "HgN/A
8:20 am36 °FPassing clouds.3 mph65%29.92 "HgN/A
7:50 am36 °FPassing clouds.5 mph65%29.92 "HgN/A
7:20 am36 °FPassing clouds.7 mph70%29.92 "HgN/A
6:50 am37 °FPassing clouds.12 mph65%29.89 "HgN/A
6:20 am37 °FPassing clouds.8 mph65%29.89 "HgN/A
5:50 am37 °FPassing clouds.10 mph70%29.89 "HgN/A
5:20 am37 °FPassing clouds.10 mph70%29.86 "HgN/A
4:50 am37 °FClear.14 mph70%29.86 "Hg10 mi
10:20 pm
Thu, Dec 1
41 °FSprinkles. Passing clouds.17 mph76%29.65 "HgN/A
9:20 pm41 °FPassing clouds.16 mph70%29.59 "HgN/A
Weather by CustomWeather, © 2016

See weather overviewHow to use our weather pages